N3917X KISM-ZZZZ

Flight info

Callsign N3917X
Flight time N/A
Altitude 3000
Route LOCAL VFR
Aircraft P28B/L-SFG/C

Departure

Time 2026-04-26 21:17
Airport Kissimmee Gateway Airport (KISM)

Arrival

Time N/A
Airport ZZZZ
Time Latitude Longitude Altitude Speed Heading
2026-04-26 21:05 28.29427 -81.43369 88 ft 0 kts 89°
2026-04-26 21:10 28.29424 -81.43358 89 ft 6 kts 124°
2026-04-26 21:10 28.29385 -81.43373 88 ft 9 kts 230°
2026-04-26 21:11 28.29349 -81.43439 90 ft 11 kts 238°
2026-04-26 21:11 28.29302 -81.43521 89 ft 14 kts 237°
2026-04-26 21:11 28.29247 -81.43623 91 ft 16 kts 238°
2026-04-26 21:11 28.29198 -81.43711 92 ft 10 kts 244°
2026-04-26 21:12 28.29232 -81.43765 91 ft 11 kts 329°
2026-04-26 21:12 28.29299 -81.43811 88 ft 12 kts 328°
2026-04-26 21:12 28.29367 -81.43861 87 ft 11 kts 328°
2026-04-26 21:12 28.29430 -81.43904 87 ft 10 kts 327°
2026-04-26 21:13 28.29483 -81.43942 86 ft 9 kts 329°
2026-04-26 21:13 28.29534 -81.43978 85 ft 9 kts 329°
2026-04-26 21:13 28.29586 -81.43993 88 ft 8 kts 26°
2026-04-26 21:13 28.29621 -81.43984 85 ft 4 kts 329°
2026-04-26 21:14 28.29634 -81.44003 85 ft 1 kts 267°
2026-04-26 21:15 28.29634 -81.44015 85 ft 7 kts 268°
2026-04-26 21:16 28.29654 -81.44067 87 ft 7 kts 306°
2026-04-26 21:16 28.29649 -81.44113 87 ft 7 kts 242°
2026-04-26 21:16 28.29624 -81.44160 89 ft 5 kts 219°
2026-04-26 21:16 28.29609 -81.44156 89 ft 7 kts 147°
2026-04-26 21:17 28.29380 -81.43996 95 ft 66 kts 150°
2026-04-26 21:17 28.28899 -81.43668 275 ft 85 kts 151°
2026-04-26 21:17 28.28375 -81.43320 564 ft 89 kts 150°
2026-04-26 21:17 28.27857 -81.42968 909 ft 84 kts 163°
2026-04-26 21:18 28.27291 -81.43071 1156 ft 89 kts 224°
2026-04-26 21:18 28.27013 -81.43650 1515 ft 84 kts 266°
2026-04-26 21:18 28.27156 -81.44295 1777 ft 91 kts 301°
2026-04-26 21:18 28.27588 -81.44925 1900 ft 110 kts 306°
2026-04-26 21:19 28.28084 -81.45651 1945 ft 124 kts 304°
2026-04-26 21:19 28.28557 -81.46478 2009 ft 124 kts 302°
2026-04-26 21:19 28.29016 -81.47328 2011 ft 126 kts 299°
2026-04-26 21:19 28.29431 -81.48129 2266 ft 110 kts 299°
2026-04-26 21:20 28.29810 -81.48850 2656 ft 97 kts 299°
2026-04-26 21:20 28.30145 -81.49456 3020 ft 91 kts 298°
2026-04-26 21:20 28.30504 -81.50151 3112 ft 110 kts 297°
2026-04-26 21:20 28.30871 -81.50919 3151 ft 112 kts 295°
2026-04-26 21:21 28.31222 -81.51724 3124 ft 116 kts 294°
2026-04-26 21:21 28.31525 -81.52563 3142 ft 112 kts 290°
2026-04-26 21:21 28.31804 -81.53384 3151 ft 111 kts 290°
2026-04-26 21:21 28.32078 -81.54239 3089 ft 118 kts 289°
2026-04-26 21:22 28.32362 -81.55107 3110 ft 117 kts 290°
2026-04-26 21:22 28.32660 -81.55976 3085 ft 119 kts 290°
2026-04-26 21:22 28.32975 -81.56865 3114 ft 122 kts 290°
2026-04-26 21:23 28.33591 -81.58660 3030 ft 120 kts 290°
2026-04-26 21:23 28.33889 -81.59559 2975 ft 121 kts 290°
2026-04-26 21:23 28.34308 -81.60369 2982 ft 120 kts 310°
2026-04-26 21:23 28.34954 -81.60955 3022 ft 120 kts 324°
2026-04-26 21:24 28.35675 -81.61452 3012 ft 122 kts 326°
2026-04-26 21:24 28.36407 -81.61936 3045 ft 121 kts 326°
2026-04-26 21:24 28.37130 -81.62426 3008 ft 122 kts 325°
2026-04-26 21:24 28.37859 -81.62912 2991 ft 120 kts 326°
2026-04-26 21:25 28.38565 -81.63400 2985 ft 117 kts 325°
2026-04-26 21:25 28.39261 -81.63909 2980 ft 119 kts 324°
2026-04-26 21:25 28.39961 -81.64414 2965 ft 119 kts 325°
2026-04-26 21:25 28.40661 -81.64921 2912 ft 124 kts 323°
2026-04-26 21:26 28.41367 -81.65485 2944 ft 121 kts 322°
2026-04-26 21:26 28.42101 -81.65926 3024 ft 119 kts 339°
2026-04-26 21:26 28.42903 -81.66146 3061 ft 122 kts 341°
2026-04-26 21:26 28.43748 -81.66344 3052 ft 125 kts 346°
2026-04-26 21:27 28.44623 -81.66509 3031 ft 128 kts 347°
2026-04-26 21:27 28.45502 -81.66647 3032 ft 128 kts 349°
2026-04-26 21:27 28.46405 -81.66762 2967 ft 131 kts 348°
2026-04-26 21:27 28.47308 -81.66863 2963 ft 131 kts 348°
2026-04-26 21:28 28.48221 -81.66956 2898 ft 133 kts 350°
2026-04-26 21:28 28.49122 -81.67051 2948 ft 127 kts 349°
2026-04-26 21:28 28.49980 -81.67125 3045 ft 121 kts 352°
2026-04-26 21:28 28.50833 -81.67145 3034 ft 124 kts 352°
2026-04-26 21:29 28.51707 -81.67164 3048 ft 126 kts 355°
2026-04-26 21:29 28.52601 -81.67156 2942 ft 131 kts 357°
2026-04-26 21:29 28.53470 -81.67230 3011 ft 121 kts 349°
2026-04-26 21:29 28.54311 -81.67326 3050 ft 121 kts 348°
2026-04-26 21:30 28.54851 -81.67388 3122 ft 114 kts 347°
2026-04-26 21:30 28.55668 -81.67498 3051 ft 123 kts 347°
2026-04-26 21:30 28.56530 -81.67605 3010 ft 127 kts 347°
2026-04-26 21:30 28.57404 -81.67702 2994 ft 125 kts 348°
2026-04-26 21:31 28.58265 -81.67785 2976 ft 123 kts 350°
2026-04-26 21:31 28.59107 -81.67865 2983 ft 121 kts 352°
2026-04-26 21:31 28.59944 -81.67947 2999 ft 121 kts 349°
2026-04-26 21:31 28.60792 -81.68031 3003 ft 123 kts 350°
2026-04-26 21:32 28.61653 -81.68093 2997 ft 124 kts 354°
2026-04-26 21:32 28.62516 -81.68102 2960 ft 126 kts 356°
2026-04-26 21:32 28.63415 -81.68074 2894 ft 131 kts 359°
2026-04-26 21:32 28.64294 -81.67890 2741 ft 125 kts
2026-04-26 21:33 28.65088 -81.67638 2481 ft 117 kts 10°
2026-04-26 21:33 28.65853 -81.67363 2232 ft 114 kts 10°
2026-04-26 21:33 28.66612 -81.67091 1962 ft 112 kts 11°
2026-04-26 21:33 28.67342 -81.66824 1770 ft 106 kts 12°
2026-04-26 21:34 28.68039 -81.66600 1585 ft 104 kts
2026-04-26 21:34 28.68728 -81.66391 1405 ft 100 kts
2026-04-26 21:34 28.69402 -81.66190 1232 ft 101 kts
2026-04-26 21:34 28.70072 -81.65977 1073 ft 99 kts 17°
2026-04-26 21:35 28.70514 -81.65370 909 ft 105 kts 72°
2026-04-26 21:35 28.70570 -81.64606 907 ft 88 kts 89°
2026-04-26 21:35 28.70575 -81.63938 831 ft 83 kts 89°
2026-04-26 21:35 28.70728 -81.63330 714 ft 82 kts 39°
2026-04-26 21:36 28.71252 -81.63098 642 ft 80 kts 354°
2026-04-26 21:36 28.71784 -81.63095 551 ft 72 kts 336°
2026-04-26 21:36 28.72169 -81.63391 440 ft 68 kts 294°
2026-04-26 21:36 28.72220 -81.63903 317 ft 69 kts 262°
2026-04-26 21:37 28.72176 -81.64435 279 ft 69 kts 267°
2026-04-26 21:37 28.72176 -81.64964 245 ft 64 kts 272°
2026-04-26 21:37 28.72187 -81.65484 435 ft 70 kts 270°
2026-04-26 21:37 28.72169 -81.66070 745 ft 77 kts 270°
2026-04-26 21:38 28.71957 -81.66619 1033 ft 85 kts 227°
2026-04-26 21:38 28.71310 -81.66894 1120 ft 114 kts 189°
2026-04-26 21:38 28.70519 -81.66747 1085 ft 123 kts 151°
2026-04-26 21:38 28.70108 -81.65937 1130 ft 121 kts 91°
2026-04-26 21:39 28.70096 -81.65008 1100 ft 111 kts 86°
2026-04-26 21:39 28.70149 -81.64193 1104 ft 98 kts 84°
2026-04-26 21:39 28.70319 -81.63485 1039 ft 89 kts 50°
2026-04-26 21:39 28.70838 -81.63129 856 ft 89 kts
2026-04-26 21:40 28.71433 -81.63128 672 ft 84 kts 352°
2026-04-26 21:40 28.71960 -81.63272 538 ft 73 kts 323°
2026-04-26 21:40 28.72167 -81.63744 402 ft 68 kts 273°
2026-04-26 21:40 28.72168 -81.64252 288 ft 63 kts 267°
2026-04-26 21:41 28.72164 -81.64768 190 ft 67 kts 272°
2026-04-26 21:41 28.72160 -81.65272 96 ft 54 kts 269°
2026-04-26 21:41 28.72158 -81.65593 93 ft 22 kts 269°
2026-04-26 21:41 28.72157 -81.65650 93 ft 3 kts 187°
2026-04-26 21:42 28.72157 -81.65588 93 ft 12 kts 88°
2026-04-26 21:42 28.72157 -81.65467 93 ft 18 kts 89°
2026-04-26 21:42 28.72158 -81.65313 93 ft 19 kts 89°
2026-04-26 21:42 28.72159 -81.65168 92 ft 17 kts 90°
2026-04-26 21:43 28.72167 -81.65084 92 ft 6 kts 37°
2026-04-26 21:43 28.72206 -81.65081 92 ft 6 kts 359°
2026-04-26 21:43 28.72252 -81.65085 92 ft 6 kts 328°
2026-04-26 21:43 28.72267 -81.65116 94 ft 3 kts 339°
2026-04-26 21:44 28.72269 -81.65116 94 ft 0 kts 356°